Wilmington, OH

10:04 AM EDT on May 24, 2017 (GMT -0400)
Airborne

Weather History for KILN - January, 2014

Change the Weather History Date:

Friday, January 17, 2014

  Actual Average (KFFO) Record (KFFO)
Temperature  
Mean Temperature 22 °F -  
Max Temperature 33 °F 32 °F 59 °F (2017)
Min Temperature 9 °F 16 °F -7 °F (2009)
Degree Days  
Heating Degree Days 44    
Moisture  
Dew Point 19 °F    
Average Humidity 86    
Maximum Humidity 96    
Minimum Humidity 71    
Precipitation  
Precipitation 0.04 in - - ()
Sea Level Pressure  
Sea Level Pressure 29.89 in    
Wind  
Wind Speed 12 mph (WSW)    
Max Wind Speed 24 mph    
Max Gust Speed 34 mph    
Visibility 5 miles    
Events Fog , Snow    
Averages and records for this station are not official NWS values.
T = Trace of Precipitation, MM = Missing Value Source: NWS Daily Summary

Daily Weather History Graph

Daily Weather History Graph

Search for Another Location

Airport or City:

Trip Planner

Search our weather history database for the weather conditions in past years. The results will help you decide how hot, cold, wet, or windy it might be!

Date:

Astronomy

Jan. 17, 2014 Rise Set
Actual Time 7:52 AM EST 5:38 PM EST
Civil Twilight 7:23 AM EST 6:07 PM EST
Nautical Twilight 6:50 AM EST 6:40 PM EST
Astronomical Twilight 6:18 AM EST 7:12 PM EST
Moon 7:23 PM EST (1/17) 8:20 AM EST (1/17)
Length of Visible Light 10h 44m
Length of Day
9h 45m
Full, 98% of the Moon is Illuminated
Jan 17
Full
Jan 24
Last Quarter
Jan 30
New
Feb 6
First Quarter
Feb 14
Full

Hourly Weather History & Observations

Time (EST) Temp. Windchill Dew Point Humidity Pressure Visibility Wind Dir Wind Speed Gust Speed Precip Events Conditions
12:54 AM 30.9 °F 20.2 °F 28.0 °F 89% 29.85 in 10.0 mi SW 15.0 mph 21.9 mph N/A   Mostly Cloudy
1:51 AM 28.4 °F 20.4 °F 26.6 °F 93% 29.77 in 10.0 mi SSW 8.1 mph - N/A   Mostly Cloudy
1:54 AM 28.9 °F 21.1 °F 27.0 °F 92% 29.85 in 10.0 mi SSW 8.1 mph - N/A   Mostly Cloudy
2:25 AM 30.0 °F 24.1 °F 28.0 °F 92% 29.77 in 10.0 mi South 5.8 mph - N/A   Overcast
2:54 AM 30.9 °F 22.8 °F 28.0 °F 89% 29.86 in 10.0 mi SSW 9.2 mph - N/A   Overcast
3:54 AM 30.0 °F 22.4 °F 28.0 °F 92% 29.86 in 10.0 mi SSW 8.1 mph - N/A   Overcast
4:05 AM 30.9 °F 24.3 °F 28.9 °F 92% 29.77 in 10.0 mi South 6.9 mph - N/A   Overcast
4:54 AM 30.9 °F 23.5 °F 28.9 °F 92% 29.84 in 9.0 mi South 8.1 mph - N/A   Overcast
5:54 AM 30.0 °F 22.4 °F 28.9 °F 96% 29.84 in 8.0 mi South 8.1 mph - N/A   Overcast
6:54 AM 30.9 °F 22.2 °F 30.0 °F 96% 29.83 in 8.0 mi South 10.4 mph - N/A   Overcast
7:08 AM 30.9 °F 23.5 °F 30.0 °F 96% 29.75 in 9.0 mi South 8.1 mph - N/A   Overcast
7:23 AM 30.9 °F 22.2 °F 30.0 °F 96% 29.75 in 9.0 mi South 10.4 mph - N/A   Overcast
8:54 AM 32.0 °F 25.6 °F 30.0 °F 92% 29.83 in 10.0 mi South 6.9 mph - N/A   Overcast
9:14 AM 32.0 °F 24.2 °F 30.9 °F 96% 29.75 in 1.8 mi South 9.2 mph - 0.00 in Snow Light Snow
9:33 AM 32.0 °F 23.0 °F 30.9 °F 96% 29.76 in 3.0 mi South 11.5 mph - 0.01 in Snow Light Snow
9:42 AM 32.0 °F 22.5 °F 30.9 °F 96% 29.76 in 1.8 mi South 12.7 mph - 0.01 in Snow Light Snow
9:54 AM 32.0 °F 23.0 °F 30.9 °F 96% 29.83 in 0.8 mi South 11.5 mph - 0.02 in Snow Light Snow
10:03 AM 32.0 °F 23.0 °F 30.9 °F 96% 29.76 in 1.2 mi South 11.5 mph - 0.00 in Snow Light Snow
10:10 AM 32.0 °F 23.6 °F 30.9 °F 96% 29.76 in 3.0 mi South 10.4 mph - 0.00 in Snow Light Snow
10:28 AM 33.1 °F 23.4 °F 30.9 °F 92% 29.76 in 1.8 mi South 13.8 mph - 0.00 in Snow Light Snow
10:54 AM 33.1 °F 24.4 °F 30.9 °F 92% 29.84 in 4.0 mi South 11.5 mph - 0.01 in Snow Light Snow
11:18 AM 30.9 °F 17.5 °F 28.9 °F 92% 29.77 in 0.8 mi West 24.2 mph 34.5 mph 0.00 in Snow Light Snow
11:27 AM 27.0 °F 13.9 °F 25.0 °F 92% 29.78 in 0.5 mi West 18.4 mph 29.9 mph 0.00 in Fog , Snow Light Snow
11:36 AM 27.0 °F 13.2 °F 24.1 °F 89% 29.79 in 1.0 mi West 20.7 mph 26.5 mph 0.00 in Snow Light Snow
11:44 AM 27.0 °F 13.2 °F 23.0 °F 85% 29.79 in 3.0 mi West 20.7 mph 31.1 mph 0.00 in Snow Light Snow
11:54 AM 26.1 °F 12.3 °F 21.9 °F 84% 29.88 in 3.0 mi West 19.6 mph 28.8 mph 0.00 in Snow Light Snow
12:02 PM 26.1 °F 13.1 °F 23.0 °F 88% 29.79 in 2.5 mi WNW 17.3 mph 25.3 mph 0.00 in Snow Light Snow
12:12 PM 25.0 °F 11.7 °F 21.9 °F 88% 29.80 in 0.8 mi West 17.3 mph - 0.00 in Snow Light Snow
12:15 PM 25.0 °F 12.6 °F 21.9 °F 88% 29.80 in 0.5 mi West 15.0 mph - 0.00 in Fog , Snow Snow
12:26 PM 25.0 °F 13.6 °F 21.9 °F 88% 29.81 in 2.0 mi West 12.7 mph - 0.00 in Snow Light Snow
12:34 PM 25.0 °F 11.7 °F 21.9 °F 88% 29.81 in 5.0 mi West 17.3 mph - 0.00 in Snow Light Snow
12:43 PM 25.0 °F 12.6 °F 21.0 °F 85% 29.81 in 2.5 mi West 15.0 mph - 0.00 in Snow Light Snow
12:48 PM 24.8 °F 11.9 °F 21.2 °F 86% 29.81 in 1.8 mi West 16.1 mph - 0.00 in Snow Light Snow
12:54 PM 25.0 °F 12.6 °F 21.0 °F 85% 29.90 in 1.5 mi West 15.0 mph - 0.00 in Snow Light Snow
1:04 PM 24.1 °F 10.6 °F 19.0 °F 81% 29.81 in 3.0 mi West 17.3 mph 24.2 mph 0.00 in Snow Light Snow
1:13 PM 24.1 °F 12.5 °F 19.9 °F 84% 29.81 in 1.8 mi West 12.7 mph - 0.00 in Snow Light Snow
1:25 PM 24.1 °F 11.0 °F 19.9 °F 84% 29.82 in 2.0 mi West 16.1 mph 21.9 mph 0.00 in Snow Light Snow
1:31 PM 23.0 °F 10.1 °F 19.0 °F 85% 29.82 in 3.0 mi West 15.0 mph - 0.00 in Snow Light Snow
1:37 PM 23.0 °F 8.3 °F 19.0 °F 85% 29.82 in 1.8 mi West 19.6 mph - 0.00 in Snow Light Snow
1:51 PM 21.2 °F 7.8 °F 17.6 °F 86% 29.81 in 1.5 mi West 15.0 mph - 0.00 in Snow Light Snow
1:54 PM 21.9 °F 8.7 °F 18.0 °F 85% 29.91 in 2.0 mi West 15.0 mph - 0.00 in Snow Light Snow
2:05 PM 21.9 °F 7.8 °F 18.0 °F 85% 29.82 in 4.0 mi West 17.3 mph 21.9 mph 0.00 in Snow Light Snow
2:12 PM 21.9 °F 9.2 °F 18.0 °F 85% 29.82 in 5.0 mi West 13.8 mph - 0.00 in Snow Light Snow
2:28 PM 21.9 °F 8.7 °F 18.0 °F 85% 29.83 in 4.0 mi West 15.0 mph - 0.00 in Snow Light Snow
2:54 PM 21.0 °F 7.6 °F 16.0 °F 81% 29.94 in 10.0 mi West 15.0 mph - 0.00 in   Overcast
3:02 PM 21.0 °F 7.1 °F 16.0 °F 81% 29.85 in 10.0 mi West 16.1 mph 19.6 mph N/A   Overcast
3:10 PM 21.0 °F 7.6 °F 15.1 °F 78% 29.86 in 10.0 mi West 15.0 mph - N/A   Overcast
3:34 PM 19.9 °F 4.3 °F 14.0 °F 78% 29.87 in 7.0 mi West 19.6 mph 24.2 mph 0.00 in Snow Light Snow
3:54 PM 19.9 °F 5.2 °F 12.9 °F 74% 29.98 in 10.0 mi West 17.3 mph 24.2 mph 0.00 in   Overcast
4:13 PM 19.0 °F 3.6 °F 12.0 °F 74% 29.90 in 9.0 mi West 18.4 mph 25.3 mph N/A   Overcast
4:23 PM 19.0 °F 5.0 °F 12.0 °F 74% 29.91 in 4.0 mi West 15.0 mph - 0.00 in Snow Light Snow
4:54 PM 18.0 °F 3.1 °F 10.9 °F 74% 30.03 in 6.0 mi West 16.1 mph - 0.00 in Snow Light Snow
5:09 PM 17.1 °F 2.0 °F 10.9 °F 77% 29.94 in 1.8 mi West 16.1 mph - 0.00 in Snow Light Snow
5:32 PM 16.0 °F 2.3 °F 10.9 °F 81% 29.95 in 0.8 mi West 12.7 mph - 0.00 in Snow Light Snow
5:44 PM 16.0 °F 2.9 °F 12.0 °F 84% 29.96 in 1.2 mi West 11.5 mph - 0.01 in Snow Light Snow
5:54 PM 15.1 °F 1.8 °F 12.0 °F 88% 30.07 in 1.0 mi West 11.5 mph - 0.01 in Snow Light Snow
6:05 PM 15.1 °F 1.8 °F 12.0 °F 88% 29.97 in 2.5 mi West 11.5 mph - 0.00 in Snow Light Snow
6:13 PM 15.1 °F 1.1 °F 10.9 °F 84% 29.97 in 6.0 mi West 12.7 mph - 0.00 in Snow Light Snow
6:54 PM 15.1 °F -1.1 °F 9.0 °F 77% 30.09 in 4.0 mi West 17.3 mph - 0.00 in Snow Light Snow
7:54 PM 14.0 °F -2.0 °F 6.1 °F 71% 30.11 in 10.0 mi West 16.1 mph - 0.00 in   Overcast
8:47 PM 12.9 °F -1.6 °F 7.0 °F 77% 30.01 in 10.0 mi West 12.7 mph - N/A   Overcast
8:54 PM 12.9 °F -0.2 °F 7.0 °F 77% 30.12 in 10.0 mi West 10.4 mph - N/A   Overcast
9:04 PM 12.9 °F 0.7 °F 7.0 °F 77% 30.02 in 8.0 mi West 9.2 mph - N/A   Overcast
9:15 PM 12.9 °F 1.6 °F 9.0 °F 84% 30.02 in 1.8 mi West 8.1 mph - 0.00 in Snow Light Snow
9:25 PM 12.9 °F 1.6 °F 9.0 °F 84% 30.02 in 3.0 mi West 8.1 mph - 0.00 in Snow Light Snow
9:32 PM 12.9 °F 0.7 °F 9.0 °F 84% 30.02 in 2.5 mi West 9.2 mph - 0.00 in Snow Light Snow
9:44 PM 12.9 °F 1.6 °F 8.1 °F 81% 30.03 in 4.0 mi West 8.1 mph - 0.00 in Snow Light Snow
9:54 PM 12.0 °F -1.3 °F 8.1 °F 84% 30.13 in 6.0 mi West 10.4 mph - 0.00 in Snow Light Snow
10:54 PM 10.0 °F -0.9 °F 5.0 °F 80% 30.14 in 10.0 mi WSW 6.9 mph - 0.00 in   Mostly Cloudy
11:20 PM 10.9 °F -1.8 °F 6.1 °F 81% 30.03 in 4.0 mi WSW 9.2 mph - 0.00 in Snow Light Snow
11:28 PM 10.0 °F -1.9 °F 6.1 °F 84% 30.03 in 4.0 mi WSW 8.1 mph - 0.00 in Snow Light Snow
11:35 PM 10.0 °F -1.9 °F 6.1 °F 84% 30.03 in 6.0 mi SW 8.1 mph - 0.00 in Snow Light Snow
11:54 PM 9.0 °F -2.2 °F 5.0 °F 84% 30.14 in 10.0 mi SW 6.9 mph - 0.00 in   Partly Cloudy